Time,TemperatureF,DewpointF,PressureIn,WindDirection,WindDirectionDegrees,WindSpeedMPH,WindSpeedGustMPH,Humidity,HourlyPrecipIn,Conditions,Clouds,dailyrainin,SolarRadiationWatts/m^2,SoftwareType,DateUTC
2013-01-31 11:12:00,44.0,15.0,30.28,East,91,6.0,11.0,30,-99.99,,,-99.99,656.190002,,2013-01-31 18:12:00,
2013-01-31 11:22:00,44.0,15.0,30.28,East,91,6.0,11.0,30,-99.99,,,-99.99,656.190002,,2013-01-31 18:22:00,
2013-01-31 11:32:00,44.0,15.0,30.27,East,92,6.0,10.0,30,-99.99,,,-99.99,682.690002,,2013-01-31 18:32:00,
2013-01-31 11:43:00,44.0,14.0,30.27,East,89,6.0,12.0,29,-99.99,,,-99.99,627.599976,,2013-01-31 18:43:00,
2013-01-31 11:52:00,44.0,14.0,30.27,East,89,6.0,12.0,29,-99.99,,,-99.99,627.599976,,2013-01-31 18:52:00,
2013-01-31 12:02:00,45.0,15.0,30.27,East,92,10.0,16.0,29,-99.99,,,-99.99,657.590027,,2013-01-31 19:02:00,
2013-01-31 12:12:00,44.0,14.0,30.28,East,97,11.0,16.0,29,-99.99,,,-99.99,650.609985,,2013-01-31 19:12:00,
2013-01-31 12:22:00,44.0,14.0,30.28,East,97,11.0,16.0,29,-99.99,,,-99.99,650.609985,,2013-01-31 19:22:00,
2013-01-31 12:32:00,43.0,14.0,30.28,East,98,12.0,18.0,30,-99.99,,,-99.99,399.570007,,2013-01-31 19:32:00,
2013-01-31 12:42:00,42.0,14.0,30.28,East,92,13.0,18.0,30,-99.99,,,-99.99,523.000000,,2013-01-31 19:42:00,
2013-01-31 12:52:00,42.0,14.0,30.28,East,92,13.0,18.0,30,-99.99,,,-99.99,523.000000,,2013-01-31 19:52:00,
2013-01-31 13:02:00,42.0,14.0,30.29,East,88,10.0,14.0,30,-99.99,,,-99.99,476.279999,,2013-01-31 20:02:00,
2013-01-31 13:11:00,42.0,14.0,30.29,East,88,10.0,14.0,30,-99.99,,,-99.99,476.279999,,2013-01-31 20:11:00,
2013-01-31 13:22:00,42.0,14.0,30.29,East,88,10.0,14.0,30,-99.99,,,-99.99,476.279999,,2013-01-31 20:22:00,
2013-01-31 13:31:00,44.0,14.0,30.27,East,82,7.0,11.0,29,-99.99,,,-99.99,624.809998,,2013-01-31 20:31:00,
2013-01-31 13:42:00,45.0,14.0,30.25,WSW,251,4.0,11.0,28,-99.99,,,-99.99,548.099976,,2013-01-31 20:42:00,
2013-01-31 13:52:00,45.0,14.0,30.25,WSW,251,4.0,11.0,28,-99.99,,,-99.99,548.099976,,2013-01-31 20:52:00,
2013-01-31 14:02:00,46.0,16.0,30.24,West,265,14.0,19.0,29,-99.99,,,-99.99,428.859985,,2013-01-31 21:02:00,
2013-01-31 14:12:00,47.0,16.0,30.24,West,262,15.0,21.0,29,-99.99,,,-99.99,472.089996,,2013-01-31 21:12:00,
2013-01-31 14:22:00,47.0,16.0,30.24,West,262,15.0,21.0,29,-99.99,,,-99.99,472.089996,,2013-01-31 21:22:00,
2013-01-31 14:32:00,47.0,16.0,30.24,WSW,253,11.0,18.0,28,-99.99,,,-99.99,536.950012,,2013-01-31 21:32:00,
2013-01-31 14:42:00,48.0,16.0,30.24,West,276,9.0,15.0,27,-99.99,,,-99.99,497.899994,,2013-01-31 21:42:00,
2013-01-31 14:52:00,48.0,16.0,30.24,West,276,9.0,15.0,27,-99.99,,,-99.99,497.899994,,2013-01-31 21:52:00,
2013-01-31 15:02:00,47.0,16.0,30.23,West,263,8.0,14.0,27,-99.99,,,-99.99,478.369995,,2013-01-31 22:02:00,
2013-01-31 15:11:00,48.0,16.0,30.23,West,273,7.0,13.0,26,-99.99,,,-99.99,470.000000,,2013-01-31 22:11:00,
2013-01-31 15:22:00,48.0,16.0,30.23,West,273,7.0,13.0,26,-99.99,,,-99.99,470.000000,,2013-01-31 22:22:00,
2013-01-31 15:32:00,49.0,16.0,30.23,WSW,249,9.0,15.0,26,-99.99,,,-99.99,455.359985,,2013-01-31 22:32:00,
2013-01-31 15:42:00,49.0,16.0,30.23,West,266,8.0,12.0,26,-99.99,,,-99.99,326.350006,,2013-01-31 22:42:00,
2013-01-31 15:52:00,49.0,16.0,30.23,West,266,8.0,12.0,26,-99.99,,,-99.99,326.350006,,2013-01-31 22:52:00,
2013-01-31 16:02:00,48.0,16.0,30.23,West,265,11.0,16.0,26,-99.99,,,-99.99,271.260010,,2013-01-31 23:02:00,
2013-01-31 16:12:00,48.0,16.0,30.23,West,277,14.0,18.0,27,-99.99,,,-99.99,217.570007,,2013-01-31 23:12:00,
2013-01-31 16:22:00,48.0,16.0,30.23,West,277,14.0,18.0,27,-99.99,,,-99.99,217.570007,,2013-01-31 23:22:00,
2013-01-31 16:32:00,48.0,16.0,30.23,West,281,13.0,19.0,27,-99.99,,,-99.99,185.490005,,2013-01-31 23:32:00,
2013-01-31 16:42:00,47.0,16.0,30.24,West,271,10.0,15.0,27,-99.99,,,-99.99,159.690002,,2013-01-31 23:42:00,
2013-01-31 16:52:00,47.0,16.0,30.24,West,271,10.0,15.0,27,-99.99,,,-99.99,159.690002,,2013-01-31 23:52:00,
2013-01-31 17:01:00,48.0,16.0,30.24,West,274,10.0,14.0,27,-99.99,,,-99.99,133.889999,,2013-02-01 00:01:00,
2013-01-31 17:11:00,47.0,16.0,30.24,WNW,289,8.0,12.0,27,-99.99,,,-99.99,110.180000,,2013-02-01 00:11:00,
2013-01-31 17:22:00,47.0,16.0,30.23,WNW,290,7.0,10.0,27,-99.99,,,-99.99,91.349998,,2013-02-01 00:22:00,
2013-01-31 17:32:00,47.0,16.0,30.23,WNW,290,7.0,10.0,27,-99.99,,,-99.99,91.349998,,2013-02-01 00:32:00,
2013-01-31 17:42:00,47.0,15.0,30.23,NNW,330,3.0,7.0,26,-99.99,,,-99.99,53.000000,,2013-02-01 00:42:00,
2013-01-31 17:52:00,46.0,14.0,30.24,NNW,330,2.0,6.0,26,-99.99,,,-99.99,25.799999,,2013-02-01 00:52:00,
2013-01-31 18:01:00,46.0,14.0,30.24,NNW,330,2.0,6.0,26,-99.99,,,-99.99,25.799999,,2013-02-01 01:01:00,
2013-01-31 18:11:00,45.0,15.0,30.24,East,86,5.0,8.0,29,-99.99,,,-99.99,6.280000,,2013-02-01 01:11:00,
2013-01-31 18:21:00,45.0,15.0,30.24,East,86,5.0,8.0,29,-99.99,,,-99.99,6.280000,,2013-02-01 01:21:00,
2013-01-31 18:32:00,44.0,15.0,30.23,East,92,6.0,8.0,30,-99.99,,,-99.99,0.700000,,2013-02-01 01:32:00,
2013-01-31 18:42:00,44.0,15.0,30.24,East,97,6.0,8.0,31,-99.99,,,-99.99,0.000000,,2013-02-01 01:42:00,
2013-01-31 18:52:00,44.0,15.0,30.24,East,97,6.0,8.0,31,-99.99,,,-99.99,0.000000,,2013-02-01 01:52:00,
2013-01-31 19:02:00,44.0,15.0,30.24,East,95,4.0,5.0,31,-99.99,,,-99.99,0.000000,,2013-02-01 02:02:00,
2013-01-31 19:11:00,44.0,15.0,30.24,East,95,4.0,5.0,31,-99.99,,,-99.99,0.000000,,2013-02-01 02:11:00,
2013-01-31 19:21:00,44.0,15.0,30.24,East,95,4.0,5.0,31,-99.99,,,-99.99,0.000000,,2013-02-01 02:21:00,
2013-01-31 19:31:00,43.0,15.0,30.24,ESE,104,5.0,7.0,31,-99.99,,,-99.99,0.000000,,2013-02-01 02:31:00,
2013-01-31 19:42:00,43.0,15.0,30.25,ESE,118,3.0,7.0,30,-99.99,,,-99.99,0.000000,,2013-02-01 02:42:00,
2013-01-31 19:52:00,44.0,13.0,30.25,West,277,1.0,4.0,28,-99.99,,,-99.99,0.000000,,2013-02-01 02:52:00,
2013-01-31 20:02:00,44.0,13.0,30.25,West,277,1.0,4.0,28,-99.99,,,-99.99,0.000000,,2013-02-01 03:02:00,
2013-01-31 20:12:00,44.0,12.0,30.26,WSW,258,6.0,9.0,26,-99.99,,,-99.99,0.000000,,2013-02-01 03:12:00,
2013-01-31 20:21:00,44.0,12.0,30.26,WSW,258,6.0,9.0,26,-99.99,,,-99.99,0.000000,,2013-02-01 03:21:00,
2013-01-31 20:32:00,44.0,13.0,30.26,West,266,5.0,8.0,27,-99.99,,,-99.99,0.000000,,2013-02-01 03:32:00,
2013-01-31 20:42:00,45.0,13.0,30.26,West,268,4.0,6.0,27,-99.99,,,-99.99,0.000000,,2013-02-01 03:42:00,
2013-01-31 20:52:00,45.0,13.0,30.26,West,268,4.0,6.0,27,-99.99,,,-99.99,0.000000,,2013-02-01 03:52:00,
2013-01-31 21:02:00,45.0,13.0,30.27,West,278,3.0,4.0,27,-99.99,,,-99.99,0.000000,,2013-02-01 04:02:00,
2013-01-31 21:11:00,45.0,13.0,30.27,NNW,336,2.0,3.0,26,-99.99,,,-99.99,0.000000,,2013-02-01 04:11:00,
2013-01-31 21:21:00,45.0,13.0,30.27,NNW,336,2.0,3.0,26,-99.99,,,-99.99,0.000000,,2013-02-01 04:21:00,
2013-01-31 21:32:00,45.0,13.0,30.27,East,84,2.0,4.0,26,-99.99,,,-99.99,0.000000,,2013-02-01 04:32:00,
2013-01-31 21:41:00,45.0,13.0,30.28,ENE,60,2.0,4.0,26,-99.99,,,-99.99,0.000000,,2013-02-01 04:41:00,
2013-01-31 21:52:00,45.0,13.0,30.28,ENE,60,2.0,4.0,26,-99.99,,,-99.99,0.000000,,2013-02-01 04:52:00,
2013-01-31 22:03:00,46.0,12.0,30.28,North,0,0.0,0.0,25,-99.99,,,-99.99,0.000000,,2013-02-01 05:03:00,
2013-01-31 22:12:00,45.0,12.0,30.29,West,260,0.0,5.0,25,-99.99,,,-99.99,0.000000,,2013-02-01 05:12:00,
2013-01-31 22:22:00,45.0,12.0,30.29,West,260,0.0,5.0,25,-99.99,,,-99.99,0.000000,,2013-02-01 05:22:00,
2013-01-31 22:32:00,45.0,13.0,30.29,West,268,6.0,7.0,27,-99.99,,,-99.99,0.000000,,2013-02-01 05:32:00,
2013-01-31 22:42:00,44.0,14.0,30.29,West,267,6.0,8.0,29,-99.99,,,-99.99,0.000000,,2013-02-01 05:42:00,
2013-01-31 22:52:00,44.0,14.0,30.29,West,267,6.0,8.0,29,-99.99,,,-99.99,0.000000,,2013-02-01 05:52:00,
2013-01-31 23:02:00,44.0,14.0,30.28,WNW,285,6.0,8.0,29,-99.99,,,-99.99,0.000000,,2013-02-01 06:02:00,
2013-01-31 23:11:00,44.0,14.0,30.28,WNW,285,6.0,8.0,29,-99.99,,,-99.99,0.000000,,2013-02-01 06:11:00,
2013-01-31 23:22:00,44.0,14.0,30.28,WNW,285,6.0,8.0,29,-99.99,,,-99.99,0.000000,,2013-02-01 06:22:00,
2013-01-31 23:32:00,45.0,14.0,30.28,WNW,288,3.0,4.0,28,-99.99,,,-99.99,0.000000,,2013-02-01 06:32:00,
2013-01-31 23:42:00,44.0,13.0,30.27,East,89,3.0,7.0,27,-99.99,,,-99.99,0.000000,,2013-02-01 06:42:00,
2013-01-31 23:52:00,44.0,13.0,30.27,East,89,3.0,7.0,27,-99.99,,,-99.99,0.000000,,2013-02-01 06:52:00,